Погода в Колке

Погода в Колке : погода сейчас, прогноз погоды и архив. Всё, что Вы хотите узнать о погоде в Колке!

Поиск расширенной информации на нашем сайте:

Другие новости

Новости СМИ2

Главная страница сайта

Новости сайта

03.07.2017

Напоминаем, что на нашем специализированном сайте Метеоцентр.Азия вы можете получить высокодетализированные автоматические прогнозы погоды по пунктам России, СНГ и мира в авиационном формате (включающие направление и скорость ветра, видимость, явления погоды, количество и форму облачности, нижнюю и верхнюю границу облачности).


Погода в Колке - сегодня

Время (UTC), дата Ветер
(°,м/с) 
Видим.   Явления Облачность Т
(°С)
Тd
(°С)
f(%) Тe
(°С)
Pmin
(гПа)
dP
(гПа)
Po
(мм)
O2
(г/м3)
Тmin Tmax R s Состояние
почвы
15 22.09.18 240 (ЮЗ) 6-12{13}  н/о    н/о 
+14.1 +7.5 64 +13  1004.4  0.8  753  287           
18 22.09.18 230 (ЮЗ) 3{14}  н/о    н/о 
+12.2 +7.6 73 +12  1004.6  0.2  753  288    +17       
21 22.09.18 210 (ЮЗ) н/о    н/о 
+10.2 +7.5 83 +9  1003.3  -1.3  752  290           
00 23.09.18 220 (ЮЗ) н/о    н/о 
+9.3 +7.2 87 +9  1002.7  -0.6  752  292           
03 23.09.18 210 (ЮЗ) н/о    н/о 
+8.4 +7.1 92 +7  1000.9  -1.8  750  291           
06 23.09.18 200 (Ю) н/о    н/о 
+9.6 +8.9 95 +9  1000.2  -0.7  750  290  +8.2         
09 23.09.18 240 (ЮЗ) 4{10}  н/о    н/о 
+12 +10.7 92 +13  1001.1  0.9  750  287           
12 23.09.18 260 (З) 6-13{14}  н/о    н/о 
+13 +8.4 74 +12  1002.1  751  287           
15 23.09.18 250 (З) 5-11{12}  н/о    н/о 
+10.2 +9.2 94 +9  1002.2  0.1  751  289           
18 23.09.18 240 (ЮЗ) 3{12}  н/о    н/о 
+9.2 +8.4 95 +9  1001.6  -0.6  751  291    +15.2       
21 23.09.18 230 (ЮЗ) н/о    н/о 
+8.6 +7.8 95 +8  1001.8  0.2  751  291           
00 24.09.18 290 (З) н/о    н/о 
+7.6 +7.1 97 +8  1002  0.2  751  293           
03 24.09.18 330 (СЗ) н/о    н/о 
+5.3 +5.1 99 +5  1002.5  0.5  751  295           
06 24.09.18 340 (С) н/о    н/о 
+8.7 +8.5 99 +8  1003.5  752  291  +4.5         
09 24.09.18 340 (С) 4{13}  н/о    н/о 
+11.8 +4.4 60 +11  1005.1  1.6  753  289           
12 24.09.18 340 (С) 5{13}  н/о    н/о 
+12.9 +4.8 58 +12  1007.3  2.2  755  290           
15 24.09.18 350 (С) 6-13{14}  н/о    н/о 
+10.8 +4.4 65 +9  1009.1  1.8  756  292           
18 24.09.18 330 (СЗ) 8-15{17}  н/о    н/о 
+9.2 +3.3 67 +7  1011.6  2.5  758  294    +13.2       
21 24.09.18 350 (С) 5-11{19}  н/о    н/о 
+8.5 +1.8 63 +7  1013.1  1.5  759  296           
00 25.09.18 360 (С) 5-12{19}  н/о    н/о 
+8.6 +4.3 74 +7  1015.1  761  297           
03 25.09.18 340 (С) 5-11{12}  н/о    н/о 
+8.1 +4.1 76 +7  1017.2  2.1  762  297           
06 25.09.18 350 (С) 6-11{15}  н/о    н/о 
+7.9 +4.8 81 +6  1019.8  2.6  764  298  +7.2         
09 25.09.18 340 (С) 4-10{14}  н/о    н/о 
+9.3 +4.2 70 +8  1023.2  3.4  767  297           
12 25.09.18 340 (С) 4-12{14}  н/о    н/о 
+10.4 +5.5 72 +10  1024.6  1.4  768  297           
15 25.09.18 320 (СЗ) 5-11{16}  н/о    н/о 
+11.3 +1.2 50 +10  1025.2  0.6  768  296           
Время (UTC), дата Ветер
(°,м/с) 
Видим.   Явления Облачность Т
(°С)
Тd
(°С)
f(%) Тe
(°С)
Pmin
(гПа)
dP
(гПа)
Po
(мм)
O2
(г/м3)
Тmin Tmax R s Состояние
почвы

Для получения пояснительной информации подведите курсор к названию столбца.

ПОГОДА в Колке - архив

Всё, что Вы хотите узнать о погоде в Колке - удобно и подробно!

Выберите нужную дату (начиная с 1 января 2015* года) и нажмите кнопку "Найти".
Будут отображены архивные сводки погоды по пункту Колка, начиная с указанной даты.


Отображать данные в формате CSV (для использования в таблицах Excel)


Внимание! Наш архив погоды предназначен исключительно для личного некоммерческого использования в познавательных целях. Если Вам необходимы официальные справки о состоянии погоды (для производственных, юридических, коммерческих и т.п. целей), обращайтесь в органы Росгидромета.

*Примечание: данная дата относится к архиву по метеостанциям СССР (Россия, СНГ, Балтия).
Архив по метеостанциям Зарубежной Европы и Азии (кроме Китая) хранится 10 дней, по другим регионам земного шара (Китай, Африка, Америка, Австралия, Океания) - 1 день.

Колка - район местоположения метеостанции


Название, широта, долгота, высота метеостанции:
Колка 57.8°ш. 22.6°д. 5 м над ур. моря [Латвия]

Дополнительная информация

В oтличие oт бoльшинства пoгoдных сайтoв мы публикуем пoдрoбную метеoинфoрмацию в детальнoм прoфессиoнальнoм фoрмате.

Характеристики температуры и влажнoсти вoздуха измеряются на высoте 2 м в тени вдали oт зданий и деревьев.
Скoрoсть ветра измеряется на высoте 10 м (на урoвне рoста челoвека скoрoсть ветра ниже в 1.5-2 раза). Если метеoстанция нахoдится в гoрoде или в лесу, тo скoрoсть ветра занижена на 2-4 м/с пo сравнению с oткрытым местoм. Скoрoсть ветра над акватoриями крупных рек и oзёр, а также на вершинах хoлмoв на 2-5 м/с выше, чем в oбычных услoвиях.
Атмoсфернoе давление в разных тoчках местнoсти мoжет значительнo oтличаться oт давления на метеoстанции, в зависимoсти oт услoвий рельефа (при пoдъёме на 10 м давление пoнижается примернo на 1 мм рт.ст.).